CW7693 Weather Reports


Display with metric or nautical units.
time (UTC)temp
F
wind
direction
speed
MPH
gust
MPH
rain 1hr
in
rain 24hr
in
rain mn
in
humidity
%
barometer
mb
20260506004602 47 150 0.0 3.0 0.00 0.00 0.00 87 1007.8
20260506003002 48 190 0.0 2.0 0.00 0.00 0.00 86 1008.1
20260506001602 48 178 0.0 3.0 0.00 0.00 0.00 86 1008.0
20260506000002 48 175 0.0 0.0 0.00 0.00 0.00 86 1007.9
20260505234603 48 221 0.0 2.0 0.00 0.00 0.00 85 1008.1
20260505233002 49 156 0.0 1.0 0.00 0.00 0.00 84 1008.1
20260505231603 49 158 0.0 4.0 0.00 0.00 0.00 84 1008.2
20260505230006 50 193 1.0 3.0 0.00 0.00 0.00 82 1008.2
20260505224602 51 170 0.0 3.0 0.00 0.00 0.00 80 1008.3
20260505223002 51 120 2.0 4.0 0.00 0.00 0.00 79 1008.3
20260505221603 52 145 2.0 4.0 0.00 0.00 0.00 78 1008.4
20260505220004 52 144 1.0 4.0 0.00 0.00 0.00 76 1008.4
20260505214604 53 132 3.0 5.0 0.00 0.00 0.00 75 1008.4
20260505213002 53 138 3.0 4.0 0.00 0.00 0.00 75 1008.6
20260505211602 53 180 1.0 4.0 0.00 0.00 0.00 72 1008.6
20260505210002 54 142 1.0 5.0 0.00 0.00 0.00 69 1008.7
20260505204608 55 202 2.0 4.0 0.00 0.00 0.00 67 1008.6
20260505203002 55 107 2.0 11.0 0.00 0.00 0.00 65 1008.5
20260505201603 55 158 1.0 4.0 0.00 0.00 0.00 65 1008.7
20260505200006 54 314 3.0 6.0 0.00 0.00 0.00 66 1008.6
20260505194614 54 86 2.0 5.0 0.00 0.00 0.00 67 1008.6
20260505193002 55 355 1.0 8.0 0.00 0.00 0.00 66 1008.4
20260505191603 55 211 7.0 17.0 0.00 0.00 0.00 63 1007.9
20260505190003 58 219 3.0 7.0 0.00 0.00 0.00 67 1007.7
20260505184604 59 360 3.0 6.0 0.00 0.00 0.00 66 1007.0
20260505183002 60 360 3.0 6.0 0.00 0.00 0.00 63 1006.6
20260505181603 60 360 0.0 4.0 0.00 0.00 0.00 66 1006.3
20260505180003 60 234 3.0 7.0 0.00 0.00 0.00 69 1005.8
20260505174602 60 347 6.0 10.0 0.00 0.00 0.00 67 1005.6
20260505173007 61 337 4.0 7.0 0.00 0.00 0.00 66 1005.6
20260505171602 61 317 3.0 7.0 0.00 0.00 0.00 65 1005.5
20260505170002 62 333 3.0 9.0 0.00 0.00 0.00 62 1005.3
20260505164605 62 360 5.0 9.0 0.00 0.00 0.00 61 1005.1
20260505163010 63 333 4.0 9.0 0.00 0.00 0.00 60 1005.0
20260505161604 64 323 5.0 11.0 0.00 0.00 0.00 59 1005.0
20260505153009 63 360 4.0 12.0 0.00 0.00 0.00 62 1005.0
20260505151606 63 355 5.0 11.0 0.00 0.00 0.00 60 1005.0
20260505130104 63 360 4.0 9.0 0.00 0.00 0.00 64 1005.5
20260505124503 63 335 4.0 9.0 0.00 0.00 0.00 65 1005.6
20260505123107 62 360 4.0 10.0 0.00 0.00 0.00 66 1005.6
20260505121502 62 360 4.0 10.0 0.00 0.00 0.00 65 1005.6
20260505114502 62 360 4.0 11.0 0.00 0.00 0.00 64 1005.7
20260505113102 62 267 3.0 7.0 0.00 0.00 0.00 63 1005.8
20260505111502 61 138 2.0 4.0 0.00 0.00 0.00 61 1005.9
20260505110106 60 173 2.0 8.0 0.00 0.00 0.00 62 1005.9
20260505101503 62 360 2.0 6.0 0.00 0.00 0.00 60 1006.1
20260505094505 61 360 2.0 5.0 0.00 0.00 0.00 61 1006.0
20260505093003 60 295 3.0 6.0 0.00 0.00 0.00 61 1006.1
20260505091603 59 350 2.0 5.0 0.00 0.00 0.00 63 1006.3
20260505090104 58 360 2.0 5.0 0.00 0.00 0.00 62 1006.4
20260505084503 58 27 0.0 4.0 0.00 0.00 0.00 60 1006.5
20260505083102 57 286 0.0 4.0 0.00 0.00 0.00 59 1006.7
20260505081504 57 11 1.0 4.0 0.00 0.00 0.00 61 1006.8
20260505080103 56 355 0.0 2.0 0.00 0.00 0.00 57 1007.0
20260505074503 54 360 0.0 2.0 0.00 0.00 0.00 59 1007.1
20260505073112 54 360 0.0 2.0 0.00 0.00 0.00 61 1007.3
20260505071502 53 130 1.0 4.0 0.00 0.00 0.00 62 1007.2
20260505070104 53 360 2.0 4.0 0.00 0.00 0.00 63 1007.4
20260505064502 51 360 0.0 3.0 0.00 0.00 0.00 70 1007.5
20260505063102 49 360 1.0 3.0 0.00 0.00 0.00 73 1007.7
20260505061508 47 360 2.0 3.0 0.00 0.00 0.00 77 1007.8
20260505054503 44 141 2.0 6.0 0.00 0.00 0.00 81 1008.1
20260505053102 44 169 2.0 5.0 0.00 0.00 0.00 83 1008.0
20260505051503 42 162 1.0 4.0 0.00 0.00 0.00 84 1007.9
20260505041503 43 142 0.0 2.0 0.00 0.00 0.00 82 1008.1
20260505034502 43 142 0.0 2.0 0.00 0.00 0.00 81 1008.1
20260505033102 44 141 1.0 2.0 0.00 0.00 0.00 82 1008.2
20260505031501 44 142 1.0 3.0 0.00 0.00 0.00 81 1008.3
20260505024506 44 133 3.0 5.0 0.00 0.00 0.00 81 1008.4
20260505023102 45 144 0.0 2.0 0.00 0.00 0.00 80 1008.6
20260505021613 45 144 1.0 3.0 0.00 0.00 0.00 81 1008.7
20260505020002 45 143 1.0 4.0 0.00 0.00 0.00 81 1008.9
20260505014603 45 138 0.0 3.0 0.00 0.00 0.00 81 1008.9
20260505013002 46 146 0.0 1.0 0.00 0.00 0.00 80 1009.0
20260505011602 46 146 0.0 3.0 0.00 0.00 0.00 81 1009.2
20260505010003 46 144 0.0 2.0 0.00 0.00 0.00 83 1009.3